Hourly Data Report for July 20, 2021

FLIN FLON
MANITOBA
Current Station Operator: ECCC - MSC

54°41'00.000" N
101°41'00.000" W
303.90 m
5050919
71954
WFO

Download Data

Hourly Data (July 2021)
Hourly Data Report for July 20, 2021
TIME
LST
Temp Definition
°C
Dew Point Definition
°C
Rel Hum Definition
%
Precip. Amount Definition
mm

Wind Dir Definition
10's deg

Wind Spd Definition
km/h
Visibility Definition
km
Stn Press Definition
kPa
Hmdx Definition


Wind Chill Definition


Weather Definition


00:00 12.3 9.8 84 0.0 33 2   98.76     LegendNANA
01:00 12.0 10.2 89 0.0   0   98.75     LegendNANA
02:00 11.5 9.8 90 0.0 0 1   98.76     LegendNANA
03:00 10.9 9.3 90 0.0 0 1   98.74     LegendNANA
04:00 10.8 9.8 94 0.0   0   98.73     LegendNANA
05:00 10.6 10.0 96 0.0 4 2   98.75     LegendNANA
06:00 12.6 11.6 94 0.0 5 2   98.74     LegendNANA
07:00 15.3 12.1 81 0.0 7 6   98.71     LegendNANA
08:00 17.2 9.8 62 0.0 11 3   98.71     LegendNANA
09:00 18.7 10.1 57 0.0 17 5   98.69     LegendNANA
10:00 19.8 7.9 46 0.0 13 10   98.63     LegendNANA
11:00 20.5 8.2 45 0.0 16 12   98.60     LegendNANA
12:00 20.7 8.8 47 0.0 17 12   98.53     LegendNANA
13:00 22.0 9.8 46 0.0 15 13   98.45     LegendNANA
14:00 23.1 10.7 45 0.0 17 12   98.35 25   LegendNANA
15:00 23.4 10.6 45 0.0 17 11   98.32 25   LegendNANA
16:00 23.4 10.9 45 0.0 17 10   98.27 25   LegendNANA
17:00 23.3 12.0 49 0.0 15 10   98.24 26   LegendNANA
18:00 22.9 12.9 53 0.0 15 10   98.20 26   LegendNANA
19:00 22.1 13.5 58 0.0 13 7   98.15 25   LegendNANA
20:00 21.3 13.7 62 0.0 13 8   98.14     LegendNANA
21:00 20.9 14.3 66 0.0 13 5   98.11     LegendNANA
22:00 20.6 14.3 67 0.0 13 10   98.05     LegendNANA
23:00 19.7 12.4 63 0.0 14 10   98.05     LegendNANA

Notes on Data Quality.

Legend

  • E = Estimated
  • M = Missing
  • NA = Not Available*
  • [empty] = Indicates an unobserved value
Date modified: